Вернуться в каталог

STARLINK-4468

АктивенСвязьVLEO
NORAD 53969·PAYLOAD·🇺🇸 United States

Запущен Oct 5, 2022 с Vandenberg Space Force Base

Loading…

Ближайшие Пролёты (ближайшие 24 часа)

TLE

СвежийSource: CelesTrak SupGP

Эпоха: Sep 15, 2026, 02:38 UTC

1 53969C 22125F   26258.11020833 -.00041857  00000+0 -12701-2 0  2582
2 53969  53.1577  86.7673 0000850  82.0232 123.3397 15.33570771    17

Отслеживайте STARLINK-4468 в реальном времени с AllMySat

Download on the App Store